Вернуться в каталог

STARLINK-36323

АктивенСвязьVLEO
NORAD 68259·PAYLOAD·🇺🇸 United States

Запущен Mar 17, 2026 с Vandenberg Space Force Base

Loading…

Ближайшие Пролёты (ближайшие 24 часа)

TLE

СвежийSource: CelesTrak SupGP

Эпоха: Sep 14, 2026, 21:19 UTC

1 68259C 26054AD  26257.88868056 -.00052980  00000+0 -15653-2 0  2572
2 68259  53.1571 128.0549 0001292  90.5886 137.4582 15.34416871    14

Отслеживайте STARLINK-36323 в реальном времени с AllMySat

Download on the App Store